| time (UTC) | temp F | wind direction | speed MPH | gust MPH | rain 1hr in | rain 24hr in | rain mn in | humidity % | barometer mb |
| 20260502234502 | 50 | 342 | 2.0 | 4.0 | 0.00 | 0.00 | 0.00 | 48 | 1017.1 |
| 20260502233001 | 50 | 339 | 3.0 | 6.0 | 0.00 | 0.00 | 0.00 | 45 | 1017.1 |
| 20260502231501 | 51 | 330 | 4.0 | 6.0 | 0.00 | 0.00 | 0.00 | 46 | 1017.1 |
| 20260502230005 | 51 | 314 | 5.0 | 10.0 | 0.00 | 0.00 | 0.00 | 46 | 1017.2 |
| 20260502224502 | 52 | 328 | 4.0 | 7.0 | 0.00 | 0.00 | 0.00 | 47 | 1017.1 |
| 20260502223001 | 50 | 340 | 2.0 | 5.0 | 0.00 | 0.00 | 0.00 | 47 | 1017.2 |
| 20260502220004 | 50 | 338 | 3.0 | 6.0 | 0.00 | 0.00 | 0.00 | 47 | 1017.2 |
| 20260502214501 | 50 | 4 | 3.0 | 6.0 | 0.00 | 0.00 | 0.00 | 49 | 1017.2 |
| 20260502211501 | 52 | 295 | 5.0 | 9.0 | 0.00 | 0.00 | 0.00 | 45 | 1017.0 |
| 20260502210003 | 50 | 333 | 3.0 | 7.0 | 0.00 | 0.00 | 0.00 | 49 | 1017.2 |
| 20260502204501 | 51 | 311 | 4.0 | 7.0 | 0.00 | 0.00 | 0.00 | 50 | 1017.3 |
| 20260502201501 | 51 | 340 | 3.0 | 7.0 | 0.00 | 0.00 | 0.00 | 53 | 1017.6 |
| 20260502200006 | 50 | 342 | 2.0 | 7.0 | 0.00 | 0.00 | 0.00 | 54 | 1017.8 |
| 20260502193001 | 48 | 328 | 3.0 | 6.0 | 0.00 | 0.00 | 0.00 | 54 | 1018.0 |
| 20260502191501 | 49 | 338 | 3.0 | 5.0 | 0.00 | 0.00 | 0.00 | 51 | 1018.1 |
| 20260502190005 | 49 | 37 | 3.0 | 6.0 | 0.00 | 0.00 | 0.00 | 58 | 1018.3 |
| 20260502184502 | 49 | 334 | 3.0 | 6.0 | 0.00 | 0.00 | 0.00 | 53 | 1018.3 |
| 20260502183001 | 48 | 332 | 2.0 | 5.0 | 0.00 | 0.00 | 0.00 | 62 | 1018.4 |
| 20260502163000 | 46 | 351 | 3.0 | 6.0 | 0.00 | 0.00 | 0.00 | 64 | 1019.1 |
| 20260502151501 | 44 | 342 | 1.0 | 4.0 | 0.00 | 0.00 | 0.00 | 63 | 1019.2 |
| 20260502123001 | 37 | 25 | 0.0 | 2.0 | 0.00 | 0.00 | 0.00 | 77 | 1018.7 |
| 20260502121500 | 37 | 26 | 1.0 | 2.0 | 0.00 | 0.00 | 0.00 | 77 | 1018.7 |
| 20260502114500 | 35 | 26 | 0.0 | 1.0 | 0.00 | 0.00 | 0.00 | 78 | 1018.3 |
| 20260502112959 | 35 | 26 | 1.0 | 1.0 | 0.00 | 0.00 | 0.00 | 78 | 1018.1 |
| 20260502111500 | 34 | 26 | 1.0 | 1.0 | 0.00 | 0.00 | 0.00 | 79 | 1018.1 |
| 20260502110004 | 34 | 26 | 0.0 | 0.0 | 0.00 | 0.00 | 0.00 | 80 | 1018.2 |
| 20260502104500 | 34 | 26 | 0.0 | 0.0 | 0.00 | 0.01 | 0.00 | 77 | 1018.0 |
| 20260502103001 | 35 | 26 | 0.0 | 1.0 | 0.00 | 0.01 | 0.00 | 77 | 1017.9 |
| 20260502101459 | 36 | 26 | 0.0 | 1.0 | 0.00 | 0.01 | 0.00 | 76 | 1018.0 |
| 20260502071500 | 39 | 357 | 0.0 | 1.0 | 0.00 | 0.07 | 0.00 | 80 | 1017.6 |
| 20260502070003 | 39 | 357 | 0.0 | 1.0 | 0.00 | 0.07 | 0.00 | 78 | 1017.7 |
| 20260502064501 | 39 | 357 | 0.0 | 1.0 | 0.00 | 0.08 | 0.00 | 79 | 1017.6 |
| 20260502060001 | 40 | 25 | 1.0 | 2.0 | 0.00 | 0.08 | 0.00 | 78 | 1018.0 |
| 20260502054500 | 40 | 29 | 0.0 | 2.0 | 0.00 | 0.09 | 0.00 | 78 | 1018.0 |
| 20260502052959 | 41 | 29 | 0.0 | 1.0 | 0.00 | 0.09 | 0.00 | 76 | 1018.0 |
| 20260502051459 | 41 | 29 | 0.0 | 2.0 | 0.00 | 0.09 | 0.00 | 74 | 1018.1 |
| 20260502050003 | 41 | 30 | 0.0 | 1.0 | 0.00 | 0.09 | 0.00 | 75 | 1018.0 |
| 20260502044501 | 42 | 30 | 0.0 | 3.0 | 0.00 | 0.09 | 0.00 | 73 | 1018.0 |
| 20260502043002 | 42 | 30 | 1.0 | 3.0 | 0.00 | 0.09 | 0.00 | 73 | 1018.0 |
| 20260502041501 | 42 | 15 | 0.0 | 2.0 | 0.00 | 0.09 | 0.00 | 74 | 1018.1 |
| 20260502040005 | 42 | 43 | 0.0 | 2.0 | 0.00 | 0.09 | 0.00 | 74 | 1018.1 |
| 20260502034502 | 42 | 43 | 0.0 | 1.0 | 0.00 | 0.09 | 0.09 | 74 | 1018.2 |
| 20260502033001 | 42 | 43 | 1.0 | 2.0 | 0.00 | 0.09 | 0.09 | 75 | 1018.1 |
| 20260502031501 | 42 | 45 | 1.0 | 3.0 | 0.00 | 0.09 | 0.09 | 76 | 1018.0 |
| 20260502030005 | 42 | 342 | 0.0 | 1.0 | 0.00 | 0.09 | 0.09 | 77 | 1017.9 |
| 20260502024502 | 42 | 342 | 0.0 | 1.0 | 0.00 | 0.09 | 0.09 | 77 | 1017.8 |
| 20260502023003 | 43 | 342 | 0.0 | 1.0 | 0.00 | 0.09 | 0.09 | 76 | 1017.6 |
| 20260502021501 | 43 | 342 | 0.0 | 1.0 | 0.00 | 0.09 | 0.09 | 74 | 1017.4 |
| 20260502020004 | 43 | 342 | 0.0 | 1.0 | 0.00 | 0.09 | 0.09 | 73 | 1017.3 |
| 20260502014502 | 44 | 342 | 0.0 | 1.0 | 0.00 | 0.09 | 0.09 | 72 | 1016.9 |
| 20260502013003 | 44 | 342 | 0.0 | 1.0 | 0.00 | 0.09 | 0.09 | 71 | 1016.7 |
| 20260502011503 | 44 | 342 | 0.0 | 2.0 | 0.00 | 0.09 | 0.09 | 70 | 1016.4 |
| 20260502004502 | 46 | 338 | 2.0 | 3.0 | 0.00 | 0.09 | 0.09 | 67 | 1016.0 |
| 20260502003001 | 46 | 341 | 2.0 | 4.0 | 0.00 | 0.09 | 0.09 | 65 | 1015.8 |
| 20260502001501 | 47 | 337 | 2.0 | 4.0 | 0.00 | 0.09 | 0.09 | 66 | 1015.8 |